Weather History for Milton, FL

Change the Weather History Date:

Thursday, October 27, 2011

  Actual Average (KNSE) Record (KNSE)
Temperature  
Mean Temperature 68 °F -  
Max Temperature 82 °F 75 °F 91 °F (2010)
Min Temperature 55 °F 56 °F 42 °F (1997)
Cooling Degree Days 3    
Growing Degree Days 18 (Base 50)    
Moisture  
Dew Point 58 °F    
Average Humidity 78    
Maximum Humidity 100    
Minimum Humidity 41    
Precipitation  
Precipitation 0.00 in - - ()
Sea Level Pressure  
Sea Level Pressure 29.91 in    
Wind  
Wind Speed 3 mph (SW)    
Max Wind Speed 10 mph    
Max Gust Speed -    
Visibility 8 miles    
Events      
Averages and records for this station are not official NWS values.
T = Trace of Precipitation, MM = Missing Value Source: NWS Daily Summary

Daily Weather History Graph

Daily Weather History Graph

Search for Another Location

Airport:

Trip Planner

Search our weather history database for the weather conditions in past years. The results will help you decide how hot, cold, wet, or windy it might be!

Date:

Astronomy

Oct. 27, 2011 Rise Set
Actual Time 6:58 AM CDT 6:04 PM CDT
Civil Twilight 6:34 AM CDT 6:29 PM CDT
Nautical Twilight 6:05 AM CDT 6:57 PM CDT
Astronomical Twilight 5:37 AM CDT 7:25 PM CDT
Moon 7:53 AM CDT (10/27) 6:42 PM CDT (10/27)
Length of Visible Light 11h 55m
Length of Day
11h 05m
New Moon, 1% of the Moon is Illuminated
Oct 27
New Moon
Nov 2
First Quarter
Nov 10
Full
Nov 18
Last Quarter
Nov 25
New

Hourly Weather History & Observations

Time (CDT) Temp. Heat Index Dew Point Humidity Pressure Visibility Wind Dir Wind Speed Gust Speed Precip Events Conditions
12:38 AM 59.0 °F - 57.2 °F 94% 29.98 in 1.8 mi NW 3.5 mph - N/A   Clear
12:47 AM 60.8 °F - 60.8 °F 100% 29.98 in 3.0 mi Calm Calm - N/A   Clear
12:56 AM 61.0 °F - 60.1 °F 97% 29.94 in 6.0 mi Calm Calm - N/A   Clear
1:56 AM 55.9 °F - 55.0 °F 97% 29.93 in 4.0 mi NNW 3.5 mph - N/A   Clear
2:47 AM 59.0 °F - 59.0 °F 100% 29.96 in 2.5 mi Calm Calm - N/A   Partly Cloudy
2:54 AM 59.0 °F - 57.2 °F 94% 29.96 in 8.0 mi Calm Calm - N/A   Partly Cloudy
2:56 AM 57.9 °F - 57.0 °F 97% 29.92 in 4.0 mi Calm Calm - N/A   Partly Cloudy
2:59 AM 57.2 °F - 57.2 °F 100% 29.96 in 1.8 mi Calm Calm - N/A   Partly Cloudy
3:07 AM 59.0 °F - 57.2 °F 94% 29.95 in 4.0 mi NE 3.5 mph - N/A   Clear
3:56 AM 59.0 °F - 57.0 °F 93% 29.91 in 8.0 mi South 5.8 mph - N/A   Overcast
4:56 AM 62.1 °F - 60.1 °F 93% 29.90 in 10.0 mi Calm Calm - N/A   Overcast
6:56 AM 59.0 °F - 57.0 °F 93% 29.91 in 10.0 mi NE 3.5 mph - N/A   Clear
7:56 AM 62.1 °F - 60.1 °F 93% 29.91 in 10.0 mi Calm Calm - N/A   Scattered Clouds
8:56 AM 66.9 °F - 60.1 °F 79% 29.92 in 10.0 mi ENE 4.6 mph - N/A   Clear
9:56 AM 73.0 °F - 57.9 °F 59% 29.92 in 10.0 mi Calm Calm - N/A   Clear
10:56 AM 75.9 °F - 57.9 °F 54% 29.91 in 10.0 mi Variable 3.5 mph - N/A   Clear
11:56 AM 77.0 °F - 57.0 °F 50% 29.90 in 10.0 mi West 6.9 mph - N/A   Mostly Cloudy
12:56 PM 79.0 °F - 55.0 °F 44% 29.87 in 10.0 mi Variable 6.9 mph - N/A   Clear
1:56 PM 81.0 °F 80.7 °F 55.0 °F 41% 29.85 in 10.0 mi WNW 5.8 mph - N/A   Mostly Cloudy
2:56 PM 79.0 °F - 57.9 °F 48% 29.85 in 10.0 mi South 9.2 mph - N/A   Scattered Clouds
3:56 PM 80.1 °F 80.6 °F 57.9 °F 47% 29.84 in 10.0 mi SSE 10.4 mph - N/A   Overcast
4:56 PM 77.0 °F - 59.0 °F 54% 29.84 in 10.0 mi South 9.2 mph - N/A   Clear
5:56 PM 72.0 °F - 57.9 °F 61% 29.85 in 10.0 mi SSW 3.5 mph - N/A   Clear
6:56 PM 68.0 °F - 57.9 °F 70% 29.87 in 10.0 mi South 3.5 mph - N/A   Clear
7:56 PM 66.9 °F - 59.0 °F 76% 29.88 in 10.0 mi Calm Calm - N/A   Clear
8:56 PM 66.0 °F - 57.9 °F 75% 29.89 in 10.0 mi Calm Calm - N/A   Clear
9:56 PM 62.1 °F - 57.0 °F 84% 29.89 in 10.0 mi Calm Calm - N/A   Clear
10:56 PM 61.0 °F - 55.9 °F 83% 29.88 in 10.0 mi WNW 3.5 mph - N/A   Clear
11:56 PM 60.1 °F - 55.9 °F 86% 29.88 in 10.0 mi Calm Calm - N/A   Clear